| time (UTC) | temp F | wind direction | speed knots | gust knots | rain 1hr in | rain 24hr in | rain mn in | humidity % | barometer mb |
| 20260505004512 | 36 | 360 | 5.2 | 9.6 | 0.18 | 0.25 | 0.25 | 92 | 1014.2 |
| 20260505003007 | 36 | 23 | 8.7 | 13.0 | 0.17 | 0.24 | 0.24 | 91 | 1014.2 |
| 20260505001510 | 36 | 17 | 4.3 | 15.6 | 0.13 | 0.20 | 0.20 | 90 | 1014.5 |
| 20260505000006 | 38 | 360 | 5.2 | 14.8 | 0.06 | 0.13 | 0.13 | 86 | 1014.4 |
| 20260504234528 | 42 | 5 | 13.9 | 21.7 | 0.00 | 0.07 | 0.07 | 79 | 1014.0 |
| 20260504233020 | 43 | 25 | 0.9 | 10.4 | 0.00 | 0.07 | 0.07 | 79 | 1013.6 |
| 20260504231508 | 43 | 95 | 6.1 | 10.4 | 0.01 | 0.07 | 0.07 | 78 | 1013.6 |
| 20260504230014 | 44 | 76 | 2.6 | 13.0 | 0.01 | 0.07 | 0.07 | 75 | 1013.5 |
| 20260504224513 | 45 | 137 | 5.2 | 11.3 | 0.01 | 0.07 | 0.07 | 77 | 1013.5 |
| 20260504223006 | 47 | 132 | 7.8 | 15.6 | 0.01 | 0.07 | 0.07 | 70 | 1013.3 |
| 20260504221519 | 47 | 340 | 0.9 | 7.8 | 0.00 | 0.06 | 0.06 | 58 | 1013.2 |
| 20260504220024 | 47 | 11 | 9.6 | 17.4 | 0.00 | 0.06 | 0.06 | 59 | 1012.5 |
| 20260504214510 | 48 | 5 | 8.7 | 20.9 | 0.00 | 0.06 | 0.06 | 58 | 1012.9 |
| 20260504213016 | 51 | 31 | 3.5 | 7.8 | 0.00 | 0.06 | 0.06 | 59 | 1012.9 |
| 20260504211512 | 49 | 5 | 0.9 | 7.8 | 0.00 | 0.06 | 0.06 | 57 | 1013.1 |
| 20260504210016 | 48 | 31 | 7.0 | 11.3 | 0.01 | 0.06 | 0.06 | 74 | 1013.4 |
| 20260504204525 | 46 | 321 | 7.8 | 15.6 | 0.03 | 0.06 | 0.06 | 70 | 1013.8 |
| 20260504203012 | 46 | 342 | 3.5 | 7.0 | 0.04 | 0.06 | 0.06 | 76 | 1013.7 |
| 20260504201503 | 43 | 340 | 4.3 | 11.3 | 0.05 | 0.06 | 0.06 | 79 | 1014.0 |
| 20260504200003 | 42 | 342 | 7.0 | 14.8 | 0.05 | 0.05 | 0.05 | 76 | 1014.1 |
| 20260504194519 | 42 | 284 | 7.0 | 13.9 | 0.03 | 0.03 | 0.03 | 76 | 1014.4 |
| 20260504193003 | 42 | 360 | 9.6 | 20.0 | 0.02 | 0.02 | 0.02 | 71 | 1014.3 |
| 20260504191508 | 46 | 303 | 12.2 | 22.6 | 0.01 | 0.01 | 0.01 | 56 | 1014.3 |
| 20260504190008 | 48 | 29 | 7.8 | 12.2 | 0.00 | 0.00 | 0.00 | 57 | 1014.2 |
| 20260504184504 | 46 | 17 | 10.4 | 15.6 | 0.00 | 0.00 | 0.00 | 63 | 1014.2 |
| 20260504183002 | 49 | 342 | 16.5 | 26.9 | 0.00 | 0.00 | 0.00 | 47 | 1014.6 |
| 20260504181518 | 54 | 329 | 7.8 | 15.6 | 0.00 | 0.00 | 0.00 | 37 | 1014.3 |
| 20260504180007 | 54 | 280 | 2.6 | 11.3 | 0.00 | 0.00 | 0.00 | 38 | 1014.4 |
| 20260504174512 | 54 | 202 | 2.6 | 18.2 | 0.00 | 0.00 | 0.00 | 38 | 1014.4 |
| 20260504173008 | 54 | 269 | 6.1 | 13.9 | 0.00 | 0.00 | 0.00 | 38 | 1014.6 |
| 20260504171534 | 53 | 201 | 7.0 | 16.5 | 0.00 | 0.00 | 0.00 | 40 | 1014.5 |
| 20260504081509 | 44 | 217 | 1.7 | 6.1 | 0.00 | 0.00 | 0.00 | 29 | 1015.5 |
| 20260504050005 | 45 | 229 | 1.7 | 4.3 | 0.00 | 0.00 | 0.00 | 34 | 1017.0 |
| 20260504044506 | 46 | 245 | 0.0 | 2.6 | 0.00 | 0.00 | 0.00 | 33 | 1017.1 |
| 20260504043005 | 46 | 260 | 0.0 | 5.2 | 0.00 | 0.00 | 0.00 | 33 | 1017.3 |
| 20260504041512 | 46 | 304 | 0.9 | 3.5 | 0.00 | 0.00 | 0.00 | 35 | 1017.3 |
| 20260504040002 | 46 | 53 | 0.0 | 2.6 | 0.00 | 0.00 | 0.00 | 37 | 1017.4 |
| 20260504034504 | 46 | 11 | 0.0 | 0.0 | 0.00 | 0.00 | 0.00 | 36 | 1017.5 |
| 20260504033010 | 47 | 285 | 1.7 | 3.5 | 0.00 | 0.00 | 0.00 | 33 | 1017.5 |
| 20260504031504 | 47 | 183 | 0.0 | 4.3 | 0.00 | 0.00 | 0.00 | 36 | 1017.5 |
| 20260504030003 | 48 | 166 | 1.7 | 4.3 | 0.00 | 0.00 | 0.00 | 36 | 1017.4 |
| 20260504024516 | 48 | 159 | 2.6 | 4.3 | 0.00 | 0.00 | 0.00 | 36 | 1017.3 |
| 20260504023003 | 48 | 164 | 3.5 | 5.2 | 0.00 | 0.00 | 0.00 | 36 | 1017.3 |
| 20260504021514 | 49 | 154 | 2.6 | 6.1 | 0.00 | 0.00 | 0.00 | 36 | 1017.2 |
| 20260504020007 | 50 | 178 | 4.3 | 7.0 | 0.00 | 0.00 | 0.00 | 35 | 1017.1 |
| 20260504014506 | 50 | 259 | 0.0 | 2.6 | 0.00 | 0.00 | 0.00 | 34 | 1017.0 |
| 20260504013005 | 51 | 217 | 3.5 | 7.8 | 0.00 | 0.00 | 0.00 | 33 | 1017.0 |
| 20260504011508 | 52 | 269 | 2.6 | 13.0 | 0.00 | 0.00 | 0.00 | 32 | 1017.1 |
| 20260504010009 | 53 | 233 | 5.2 | 15.6 | 0.00 | 0.00 | 0.00 | 33 | 1017.2 |